Overview Statistics Trail Chart Weather Telemetry Raw packets
 

This is the latest recevied weather packets stored in our database for station/object WX6HNX-14. If no packets are shown the sender has not sent any weather packets the latest 10 day(s).

<< 9 10 11 12 13 14 15 >>
Time Temp. Humidity Pressure Rain* Wind** Luminosity Snow
1777727306 15.56° C 67% 1012.2 hPa 0 mm - - -
1777727007 15.56° C 68% 1012.2 hPa 0 mm - - -
1777726707 15.56° C 67% 1012.1 hPa 0 mm - - -
1777726406 15.56° C 67% 1012 hPa 0 mm - - -
1777726064 16.11° C 67% 1012 hPa 0 mm - - -
1777725764 16.11° C 66% 1011.8 hPa 0 mm - - -
1777725465 16.11° C 65% 1011.8 hPa 0 mm - - -
1777725165 16.11° C 65% 1011.9 hPa 0 mm - - -
1777724864 16.67° C 63% 1011.9 hPa 0 mm - - -
1777724498 16.67° C 62% 1011.9 hPa 0 mm - - -
1777724198 16.67° C 61% 1011.8 hPa 0 mm - - -
1777723898 16.67° C 61% 1011.8 hPa 0 mm - - -
1777723598 17.22° C 61% 1011.7 hPa 0 mm - - -
1777722696 17.78° C 57% 1011.7 hPa 0 mm - - -
1777722396 17.78° C 57% 1011.7 hPa 0 mm - - -
1777722095 17.78° C 56% 1011.7 hPa 0 mm - - -
1777721795 17.78° C 56% 1011.8 hPa 0 mm - - -
1777721495 17.78° C 57% 1011.8 hPa 0 mm - - -
1777721195 17.78° C 58% 1011.9 hPa 0 mm - - -
1777720899 17.22° C 59% 1011.8 hPa 0 mm - - -
1777720596 17.22° C 60% 1011.9 hPa 0 mm - - -
1777720296 16.67° C 61% 1011.8 hPa 0 mm - - -
1777719995 16.67° C 61% 1011.7 hPa 0 mm - - -
1777719695 16.67° C 62% 1011.8 hPa 0 mm - - -
1777719395 16.67° C 61% 1011.8 hPa 0 mm - - -

* Rain latest hour (hover to see other rain measurements)
** Current wind speed in m/s (hover to see current wind gust speed)